This demonstration page uses our WeatherBlox Daily Observations layout. Learn more.

Left ArrowRight Arrow

36.17497, -115.13722

Hourly Observations for August 13, 2019

Temp ( °F °C ) Dew Point ( °F °C ) Humidity (%) Winds ( mph kmh ) Pressure ( in mb ) Visibility ( mi km ) Precip ( " mm )
12:53 am 00:53 Clear 85 29.4 34 1.1 16 16 NNE 5 7 29.89 1012 10 16 0.00 0.00
1:53 am 01:53 Clear 84 28.9 35 1.7 17 17 WNW 5 7 29.89 1012 10 16 0.00 0.00
2:53 am 02:53 Clear 80 26.7 35 1.7 20 20 N 6 9 29.90 1013 10 16 0.00 0.00
3:53 am 03:53 Clear 78 25.6 35 1.7 21 21 N 5 7 29.91 1013 10 16 0.00 0.00
4:53 am 04:53 Clear 76 24.4 31 -0.6 19 19 NNW 6 9 29.92 1013 10 16 0.00 0.00
5:53 am 05:53 Clear 76 24.4 32 0 20 20 N 7 11 29.94 1014 10 16 0.00 0.00
6:53 am 06:53 Sunny 78 25.6 33 0.6 19 19 NNW 6 9 29.96 1014 10 16 0.00 0.00
7:53 am 07:53 Sunny 83 28.3 38 3.3 20 20 N 6 9 29.97 1015 10 16 0.00 0.00
8:53 am 08:53 Sunny 89 31.7 36 2.2 15 15 NE 3 6 29.98 1015 10 16 0.00 0.00
9:53 am 09:53 Sunny 91 32.8 36 2.2 14 14 Calm 29.99 1016 10 16 0.00 0.00
10:53 am 10:53 Sunny 95 35 38 3.3 14 14 VRB 6 9 29.99 1016 10 16 0.00 0.00
11:53 am 11:53 Sunny 97 36.1 39 3.9 13 13 VRB 3 6 29.97 1015 10 16 0.00 0.00
12:53 pm 12:53 Sunny 99 37.2 37 2.8 12 12 VRB 7 11 29.95 1014 10 16 0.00 0.00
1:53 pm 13:53 Sunny 102 38.9 36 2.2 10 10 SSE 12 19 29.92 1013 10 16 0.00 0.00
2:53 pm 14:53 Sunny 103 39.4 36 2.2 10 10 S 9 15 29.89 1012 10 16 0.00 0.00
3:53 pm 15:53 Sunny 103 39.4 35 1.7 9 9 SE 9 15 29.87 1011 10 16 0.00 0.00
4:53 pm 16:53 Sunny 103 39.4 35 1.7 9 9 SE 7 11 29.85 1011 10 16 0.00 0.00
5:53 pm 17:53 Sunny 103 39.4 35 1.7 9 9 SSE 10 17 29.84 1011 10 16 0.00 0.00
6:53 pm 18:53 Sunny 102 38.9 34 1.1 9 9 SE 12 19 29.84 1011 10 16 0.00 0.00
7:53 pm 19:53 Clear 99 37.2 34 1.1 10 10 SE 7 11 29.85 1011 10 16 0.00 0.00
8:53 pm 20:53 Clear 96 35.6 34 1.1 11 11 SE 6 9 29.88 1012 10 16 0.00 0.00
9:53 pm 21:53 Clear 95 35 34 1.1 12 12 Calm 29.89 1012 10 16 0.00 0.00
10:53 pm 22:53 Clear 93 33.9 35 1.7 13 13 NE 3 6 29.89 1012 10 16 0.00 0.00
11:53 pm 23:53 Clear 88 31.1 37 2.8 16 16 NW 7 11 29.91 1013 10 16 0.00 0.00

Powered by AerisWeather